Regional Weather Roundup
Issued by NWS Sioux Falls, SD

Home | Current Version | Previous Version | Text Only | Print | Product List | Glossary On
Versions: 1 2 3 4 5 6 7 8 9 10 11 12 13 14 15 16 17 18 19 20 21 22 23 24 25 26 27 28 29 30 31 32 33 34 35 36 37 38 39 40 41 42 43 44 45 46 47 48 49 50
000
ASUS43 KFSD 190702
RWRFSD

WEATHER ROUNDUP FOR SE SOUTH DAKOTA/SW MINNESOTA/NW IOWA
NATIONAL WEATHER SERVICE SIOUX FALLS SD
200 AM CDT SAT APR 19 2014

NOTE: "FAIR" INDICATES FEW OR NO CLOUDS BELOW 12,000 FEET WITH NO
SIGNIFICANT WEATHER AND OR OBSTRUCTIONS TO VISIBILITY.


SDZ038>040-050-052>070-190800-
SOUTHEAST SOUTH DAKOTA

CITY           SKY/WX    TMP DP  RH WIND       PRES   REMARKS
CHAMBERLAIN      N/A     65  43  44 SW25G31   29.76F
HURON          CLOUDY    58  41  53 S17G32    29.76F
MADISON        FAIR      55  39  54 S26G37    29.88R
MITCHELL       CLOUDY    60  43  53 S15       29.85R
SIOUX FALLS    CLOUDY    55  39  54 S16G26    29.91F
WINNER         FAIR      66  43  43 SW18G35   29.77R
YANKTON        MOCLDY    55  39  54 S15       29.92S
$$

MNZ071-072-080-081-089-090-097-098-190800-
SOUTHWEST MINNESOTA

CITY           SKY/WX    TMP DP  RH WIND       PRES   REMARKS
FAIRMONT       CLOUDY    46  28  49 SE21G30   30.09F
JACKSON        MOCLDY    48  32  53 SE14      30.04F
LUVERNE        MOCLDY    54  37  54 S20G25    29.96F
MARSHALL       PTCLDY    48  34  57 SE16G23   29.94F
MONTEVIDEO     MOCLDY    48  36  61 S24G31    29.98R
PIPESTONE      MOCLDY    52  37  58 S21G30    29.92F
REDWOOD FALLS  PTCLDY    45  33  63 SE21      30.02F
TRACY          PTCLDY    48  36  62 SE14G21   29.97F
WINDOM         MOCLDY    48  34  57 SE18      30.02F
WORTHINGTON    PTCLDY    48  32  53 S17G24    30.01F
$$

IAZ001>003-012>014-020>022-031-032-NEZ013-014-SDZ071-190800-
NORTHWEST IOWA

CITY           SKY/WX    TMP DP  RH WIND       PRES   REMARKS
CHEROKEE       MOCLDY    52  37  58 S16G22    30.03F
DENISON        CLOUDY    54  39  58 S20G26    30.05F
ESTHERVILLE    CLOUDY    46  34  62 SE21      30.05F
SHELDON        CLOUDY    52  37  58 S23G30    29.98F
SIOUX CITY     PTCLDY    55  40  56 S20       29.99F
SPENCER        PTCLDY    51  36  56 S18       30.04F
STORM LAKE     MOCLDY    50  37  62 SE18      30.06F
$$

ABBREVIATIONS USED IN REMARKS
   TC - TEMPERATURE IN CELSIUS
  WCI - WIND CHILL INDEX
   HX - HEAT INDEX
  VSB - VISIBILITY




USA.gov is the U.S. government's official web portal to all federal, state and local government web resources and services.